When you browse on this site, cookies collect data to enhance your experience and personalize the content and advertising you see.
Visit our Privacy Policy to learn more. By continuing to use the site, you agree to this use of cookies and data.
  • en France
  • Liste des pays
  • À 7 jours
  • Température de l'eau
  • Carte satellitaire
  • Carte météo
  • Widgets météo
  • user-avatar
    Se connecter

    Météo par heure à Benito Juárez

    Ce jour, 18 Juillet, Jeudi

    Heure Température Précipitation Vent Pression Humidité
    00:00 +21°C° 0 mm 1 m/s 673 mmHg 91%
    01:00 +21°C° 0 mm 1 m/s 673 mmHg 90%
    02:00 +19°C° 0 mm 2 m/s 672 mmHg 89%
    03:00 +19°C° 0 mm 2 m/s 672 mmHg 88%
    04:00 +19°C° 0 mm 2 m/s 672 mmHg 87%
    05:00 +19°C° 0 mm 2 m/s 672 mmHg 86%
    06:00 +22°C° 0 mm 1 m/s 673 mmHg 81%
    07:00 +24°C° 0 mm 1 m/s 673 mmHg 77%
    08:00 +24°C° 0 mm 0 m/s 674 mmHg 72%
    09:00 +27°C° 0.3 mm 1 m/s 674 mmHg 70%
    10:00 +28°C° 0.3 mm 1 m/s 674 mmHg 68%
    11:00 +29°C° 0.3 mm 2 m/s 673 mmHg 66%
    12:00 +29°C° 1 mm 1 m/s 673 mmHg 68%
    13:00 +29°C° 1 mm 1 m/s 672 mmHg 69%
    14:00 +29°C° 1 mm 1 m/s 671 mmHg 71%
    15:00 +27°C° 1 mm 1 m/s 671 mmHg 77%
    16:00 +25°C° 1 mm 1 m/s 670 mmHg 83%
    17:00 +24°C° 1 mm 1 m/s 670 mmHg 89%
    18:00 +23°C° 0.4 mm 1 m/s 670 mmHg 89%
    19:00 +23°C° 0.4 mm 1 m/s 671 mmHg 89%
    20:00 +22°C° 0.4 mm 1 m/s 672 mmHg 89%
    21:00 +22°C° 0.2 mm 1 m/s 672 mmHg 89%
    22:00 +22°C° 0.2 mm 1 m/s 672 mmHg 89%
    23:00 +21°C° 0.2 mm 1 m/s 672 mmHg 89%

    Demain, 19 Juillet, Vendredi

    Heure Température Précipitation Vent Pression Humidité
    00:00 +21°C° 0.1 mm 1 m/s 672 mmHg 89%
    01:00 +21°C° 0.1 mm 1 m/s 672 mmHg 88%
    02:00 +21°C° 0.1 mm 1 m/s 671 mmHg 88%
    03:00 +21°C° 0 mm 1 m/s 671 mmHg 87%
    04:00 +20°C° 0 mm 1 m/s 671 mmHg 87%
    05:00 +20°C° 0 mm 1 m/s 671 mmHg 86%
    06:00 +22°C° 0 mm 1 m/s 672 mmHg 83%
    07:00 +24°C° 0 mm 1 m/s 673 mmHg 79%
    08:00 +23°C° 0 mm 0 m/s 673 mmHg 76%
    09:00 +26°C° 0.2 mm 1 m/s 673 mmHg 73%
    10:00 +27°C° 0.2 mm 1 m/s 673 mmHg 70%
    11:00 +29°C° 0.2 mm 1 m/s 673 mmHg 67%
    12:00 +29°C° 0.4 mm 1 m/s 672 mmHg 67%
    13:00 +29°C° 0.4 mm 1 m/s 671 mmHg 68%
    14:00 +29°C° 0.4 mm 1 m/s 671 mmHg 68%
    15:00 +28°C° 0.9 mm 1 m/s 671 mmHg 74%
    16:00 +27°C° 0.9 mm 1 m/s 670 mmHg 80%
    17:00 +24°C° 0.9 mm 0 m/s 670 mmHg 86%
    18:00 +25°C° 1.9 mm 1 m/s 671 mmHg 88%
    19:00 +24°C° 1.9 mm 1 m/s 671 mmHg 89%
    20:00 +23°C° 1.9 mm 1 m/s 672 mmHg 90%
    21:00 +22°C° 1.2 mm 1 m/s 672 mmHg 91%
    22:00 +21°C° 1.2 mm 1 m/s 672 mmHg 92%
    23:00 +20°C° 1.2 mm 2 m/s 672 mmHg 93%

    Après-demain, 20 Juillet, Samedi

    Heure Température Précipitation Vent Pression Humidité
    00:00 +21°C° 0.5 mm 1 m/s 672 mmHg 93%
    01:00 +21°C° 0.5 mm 1 m/s 672 mmHg 93%
    02:00 +18°C° 0.5 mm 0 m/s 671 mmHg 92%
    03:00 +18°C° 0.3 mm 0 m/s 671 mmHg 93%
    04:00 +18°C° 0.3 mm 0 m/s 671 mmHg 93%
    05:00 +18°C° 0.3 mm 0 m/s 671 mmHg 93%
    06:00 +19°C° 0.1 mm 0 m/s 672 mmHg 90%
    07:00 +21°C° 0.1 mm 0 m/s 672 mmHg 87%
    08:00 +22°C° 0.1 mm 0 m/s 673 mmHg 84%
    09:00 +25°C° 0.2 mm 1 m/s 673 mmHg 82%
    10:00 +26°C° 0.2 mm 1 m/s 673 mmHg 79%
    11:00 +27°C° 0.2 mm 2 m/s 672 mmHg 76%
    12:00 +27°C° 0.3 mm 1 m/s 672 mmHg 76%
    13:00 +27°C° 0.3 mm 1 m/s 671 mmHg 75%
    14:00 +28°C° 0.3 mm 1 m/s 670 mmHg 74%
    15:00 +27°C° 0.3 mm 1 m/s 670 mmHg 78%
    16:00 +27°C° 0.3 mm 1 m/s 670 mmHg 82%
    17:00 +24°C° 0.3 mm 0 m/s 670 mmHg 85%
    18:00 +25°C° 0.7 mm 1 m/s 670 mmHg 88%
    19:00 +23°C° 0.7 mm 1 m/s 671 mmHg 91%
    20:00 +22°C° 0.7 mm 1 m/s 671 mmHg 94%
    21:00 +22°C° 0.2 mm 1 m/s 671 mmHg 94%
    22:00 +21°C° 0.2 mm 1 m/s 672 mmHg 93%
    23:00 +21°C° 0.2 mm 1 m/s 672 mmHg 93%

    21 Juillet, Dimanche

    Heure Température Précipitation Vent Pression Humidité
    00:00 +21°C° 0.1 mm 1 m/s 672 mmHg 92%
    01:00 +21°C° 0.1 mm 1 m/s 671 mmHg 91%
    02:00 +21°C° 0.1 mm 1 m/s 671 mmHg 90%
    03:00 +21°C° 0.3 mm 1 m/s 671 mmHg 89%
    04:00 +21°C° 0.3 mm 1 m/s 671 mmHg 89%
    05:00 +20°C° 0.3 mm 1 m/s 672 mmHg 88%
    06:00 +22°C° 0 mm 1 m/s 672 mmHg 85%
    07:00 +23°C° 0 mm 1 m/s 673 mmHg 82%
    08:00 +23°C° 0 mm 0 m/s 673 mmHg 79%
    09:00 +26°C° 0.2 mm 1 m/s 674 mmHg 75%
    10:00 +27°C° 0.2 mm 1 m/s 674 mmHg 71%
    11:00 +29°C° 0.2 mm 1 m/s 674 mmHg 67%
    12:00 +29°C° 0.5 mm 1 m/s 673 mmHg 67%
    13:00 +29°C° 0.5 mm 1 m/s 672 mmHg 68%
    14:00 +29°C° 0.5 mm 2 m/s 672 mmHg 68%
    15:00 +28°C° 0.8 mm 1 m/s 671 mmHg 74%
    16:00 +27°C° 0.8 mm 1 m/s 671 mmHg 79%
    17:00 +24°C° 0.8 mm 0 m/s 671 mmHg 85%
    18:00 +25°C° 1.3 mm 1 m/s 671 mmHg 87%
    19:00 +23°C° 1.3 mm 1 m/s 671 mmHg 90%
    20:00 +21°C° 1.3 mm 2 m/s 672 mmHg 92%
    21:00 +20°C° 0.5 mm 2 m/s 672 mmHg 91%
    22:00 +20°C° 0.5 mm 2 m/s 672 mmHg 91%
    23:00 +20°C° 0.5 mm 2 m/s 673 mmHg 90%

    22 Juillet, Lundi

    Heure Température Précipitation Vent Pression Humidité
    00:00 +20°C° 0.1 mm 2 m/s 672 mmHg 88%
    01:00 +20°C° 0.1 mm 2 m/s 672 mmHg 87%
    02:00 +20°C° 0.1 mm 2 m/s 672 mmHg 86%
    03:00 +20°C° 0 mm 2 m/s 672 mmHg 84%
    04:00 +21°C° 0 mm 1 m/s 672 mmHg 82%
    05:00 +21°C° 0 mm 1 m/s 672 mmHg 80%
    06:00 +23°C° 0 mm 1 m/s 673 mmHg 77%
    07:00 +24°C° 0 mm 1 m/s 673 mmHg 74%
    08:00 +24°C° 0 mm 0 m/s 674 mmHg 70%
    09:00 +27°C° 0.2 mm 1 m/s 674 mmHg 68%
    10:00 +28°C° 0.2 mm 1 m/s 674 mmHg 67%
    11:00 +29°C° 0.2 mm 1 m/s 674 mmHg 65%
    12:00 +29°C° 0.6 mm 1 m/s 673 mmHg 65%
    13:00 +29°C° 0.6 mm 1 m/s 672 mmHg 65%
    14:00 +30°C° 0.6 mm 1 m/s 672 mmHg 64%
    15:00 +29°C° 0.7 mm 1 m/s 671 mmHg 70%
    16:00 +28°C° 0.7 mm 1 m/s 671 mmHg 75%
    17:00 +25°C° 0.7 mm 0 m/s 671 mmHg 80%
    18:00 +26°C° 0.6 mm 1 m/s 671 mmHg 83%
    19:00 +24°C° 0.6 mm 1 m/s 672 mmHg 85%
    20:00 +23°C° 0.6 mm 2 m/s 672 mmHg 88%
    21:00 +21°C° 0.4 mm 2 m/s 672 mmHg 89%
    22:00 +21°C° 0.4 mm 2 m/s 673 mmHg 89%
    23:00 +22°C° 0.4 mm 1 m/s 673 mmHg 90%

    23 Juillet, Mardi

    Heure Température Précipitation Vent Pression Humidité
    00:00 +21°C° 0.5 mm 1 m/s 673 mmHg 91%
    01:00 +21°C° 0.5 mm 1 m/s 672 mmHg 91%
    02:00 +21°C° 0.5 mm 1 m/s 672 mmHg 92%
    03:00 +21°C° 0.4 mm 1 m/s 672 mmHg 92%
    04:00 +21°C° 0.4 mm 1 m/s 672 mmHg 92%
    05:00 +21°C° 0.4 mm 1 m/s 672 mmHg 92%
    06:00 +19°C° 0.1 mm 0 m/s 673 mmHg 91%
    07:00 +20°C° 0.1 mm 0 m/s 673 mmHg 91%
    08:00 +20°C° 0.1 mm 0 m/s 674 mmHg 90%
    09:00 +21°C° 0.2 mm 0 m/s 673 mmHg 87%
    10:00 +24°C° 0.2 mm 1 m/s 673 mmHg 84%
    11:00 +25°C° 0.2 mm 1 m/s 673 mmHg 81%
    12:00 +26°C° 0.4 mm 1 m/s 673 mmHg 78%
    13:00 +27°C° 0.4 mm 1 m/s 672 mmHg 75%
    14:00 +28°C° 0.4 mm 1 m/s 672 mmHg 73%
    15:00 +27°C° 0.2 mm 1 m/s 671 mmHg 76%
    16:00 +24°C° 0.2 mm 0 m/s 671 mmHg 80%
    17:00 +24°C° 0.2 mm 0 m/s 671 mmHg 84%
    18:00 +23°C° 0.3 mm 0 m/s 671 mmHg 85%
    19:00 +24°C° 0.3 mm 1 m/s 672 mmHg 86%
    20:00 +23°C° 0.3 mm 1 m/s 672 mmHg 87%
    21:00 +22°C° 0.3 mm 1 m/s 672 mmHg 87%
    22:00 +22°C° 0.3 mm 1 m/s 672 mmHg 86%
    23:00 +22°C° 0.3 mm 1 m/s 673 mmHg 86%
    Voir plus